Miscellaneous Local Product
Issued by NWS North Platte, NE

Home | Current Version | Previous Version | Graphics & Text | Print | Product List | Glossary On
Versions: 1 2 3 4 5 6 7 8 9 10 11 12 13 14 15 16 17 18 19 20 21 22 23 24 25 26 27 28 29 30 31 32 33 34 35 36 37 38 39 40 41 42 43 44 45 46 47 48 49 50
000
AXUS43 KLBF 272310
MISLBF


WESTERN AND NORTH CENTRAL NEBRASKA HOURLY WEATHER ROUNDUP
NATIONAL WEATHER SERVICE NORTH PLATTE NE
500 PM CST SAT DEC 27 2014

***STATIONS NOT REPORTING VARIABLES SUCH AS SKY/WEATHER OR
PRESSURE ARE PROVIDED BY THE NEBRASKA DEPARTMENT OF
ROADS...RAWS...AND APRS NETWORKS...AND ARE NOT UNDER
NATIONAL WEATHER SERVICE QUALITY CONTROL***

...OBSERVATIONS IN AND NEAR THE EASTERN PANHANDLE OF NEBRASKA...

CITY           SKY/WX    TMP DP  RH WIND       PRES   REMARKS
PINE RIDGE     CLEAR     23  11  60 SW3       30.06S
CHADRON        CLEAR     15   7  70 SW7       30.07R WCI   5
ALLIANCE       CLEAR     16   7  67 W10       30.06R WCI   4
SIDNEY         CLEAR     11   4  73 SW7       30.09S WCI   0
WHITECLAY        N/A     24  10  53 SW3         N/A
CRESCENT LAKE    N/A     18   7  62 SW6         N/A  WCI  10
LISCO            N/A     21   7  55 W6          N/A  WCI  13
BIG SPRINGS      N/A     20  13  72 SW8         N/A  WCI  10
$$

...OBSERVATIONS IN NORTH CENTRAL NEBRASKA...

CITY           SKY/WX    TMP DP  RH WIND       PRES   REMARKS
VALENTINE      CLEAR     19  12  74 SW8       30.09S WCI   9
THEDFORD       CLEAR     26  18  71 SW5       30.12R WCI  20
AINSWORTH      CLEAR     20  13  75 SW3       30.10F
O`NEILL        CLEAR     18  15  88 SW6       30.15S WCI  10
ORD            CLEAR     22  14  71 CALM      30.16F
BROKEN BOW     CLEAR     21  14  74 W5        30.15R WCI  15
BROWNLEE         N/A     21   9  61 S9          N/A  WCI  10
SPRINGVIEW       N/A     23  16  74 SW5         N/A  WCI  17
BREWSTER         N/A     26  18  73 CALM        N/A
ROSE             N/A     25  21  84 SE6         N/A  WCI  18
SARGENT          N/A     23  17  77 CALM        N/A
COMSTOCK         N/A     28  18  66 SW5         N/A  WCI  23
CHAMBERS         N/A     20  12  69 S3          N/A
EWING            N/A     20  15  81 CALM        N/A
$$

...OBSERVATIONS IN SOUTHWEST NEBRASKA AND FAR NORTHEAST COLORADO...

CITY           SKY/WX    TMP DP  RH WIND       PRES   REMARKS
WRAY           FAIR      29  14  54 CALM      30.15S
HOLYOKE        FAIR      21  10  63 SW8       30.13F WCI  12
IMPERIAL       CLEAR     25  12  58 W3        30.15F
OGALLALA       CLEAR     20  11  70 W6        30.14S WCI  12
NORTH PLATTE   CLEAR     21  12  68 SW5       30.15F WCI  15
MCCOOK         CLEAR     23  13  65 W7        30.20S WCI  15
LEXINGTON      CLEAR     23  16  74 SW6       30.19R WCI  16
PAXTON           N/A     22  15  74 SW3         N/A
BRADY            N/A     24  16  71 CALM        N/A
GOTHENBURG       N/A     27  17  65 SW3         N/A
CALLAWAY         N/A     17  13  86 SW6         N/A  WCI   9
$$

...NORTH PLATTE AREA...

CITY           SKY/WX    TMP DP  RH WIND       PRES   REMARKS
AIRPORT        CLEAR     21  12  68 SW5       30.15F WCI  15
DOWNTOWN         N/A     24  14  66 CALM        N/A
$$

...SOME WEATHER OBSERVATIONS FROM AROUND THE REGION...

CITY           SKY/WX    TMP DP  RH WIND       PRES   REMARKS
DENVER         PTCLDY    23  15  71 SE8       30.04R WCI  14
LARAMIE        CLOUDY    16   2  54 W17       29.98R WCI   0
CHEYENNE       PTCLDY    18   3  52 SW13      30.01R WCI   5
SCOTTSBLUFF    CLEAR     20  10  65 W9        30.08S WCI   9
RAPID CITY     MOCLDY    20  13  74 CALM      30.02S
PIERRE         CLEAR     23  17  78 SW7       30.06F WCI  15
WINNER         FAIR      22  13  68 SW6       30.11S WCI  14
SIOUX FALLS    CLEAR     14   8  77 SW6       30.15R WCI   5
OMAHA          PTCLDY    24  16  71 W7        30.25S WCI  16
GRAND ISLAND     N/A     21  13  71 W6        30.22S WCI  13
KANSAS CITY    MOCLDY    30  20  66 NW7       30.25R WCI  23
WICHITA        PTCLDY    33  17  51 NW9       30.28R WCI  25
HAYS           CLEAR     28  12  50 NW10      30.25S WCI  19
LIBERAL        CLEAR     34  18  51 NW7       30.26R WCI  28
GOODLAND       CLEAR     25  14  63 W7        30.17S WCI  17
$$



USA.gov is the U.S. government's official web portal to all federal, state and local government web resources and services.